Weather in Petrcane

Croatia     44°11′07″N   15°09′42″E
temp.,
°C
wind,
m/s
gust,
m/s
humid.,
%
clouds,
%
prec.,
mm/h
press.,
hPa
HPBL,
m
15 april, thu
thu1523:00+7ne44625 0.0 1023207
02:00+6ne566219 0.0 1023214
05:00+6ne5661100 0.0 1022203
08:00+7ne565588 0.0 1022352
11:00+11nne3434100 0.0 10221227
14:00+12wnw443897 0.0 10211266
17:00+11wnw44465 0.0 1020635
20:00+10nnw33504 0.0 1020164
16 april, fri
fri1623:00+8ne44554 0.0 1020110
02:00+7ene45554 0.0 1020108
05:00+7ne5554100 0.0 1018110
08:00+8ne45546 0.0 1019176
11:00+12n223492 0.0 1019833
14:00+13wnw5341100 0.0 1017570
17:00+12wnw555069 0.0 1016389
20:00+11nnw3561100 0.0 1015109
17 april, sat
sat1723:00+10ne5761100 0.0 1015187
02:00+9ne676196 0.0 1014196
05:00+9ne71054100 0.0 1012482
08:00+9ne71153100 0.0 1012898
11:00+11nne81046100 0.0 10111360
14:00+11ne7851100 0.0 10111328
17:00+10ne7862100 0.0 1011936
20:00+9nne697099 0.0 1011753
18 april, sun
sun1823:00+8nne6876100 0.0 1012717
02:00+7ne5689100 0.1 1013383
05:00+7ne4590100 0.6 1013383
08:00+6ne4489100 0.9 1014353
11:00+7ne4484100 0.2 1016343
14:00+9nne547763 0.3 1016526
17:00+9ne667689 0.1 1016330
20:00+9ne677526 0.1 1016240
19 april, mon
mon1923:00+7ne56806 0.0 1017156
02:00+7ne56765 0.0 1016172
05:00+8ne567240 0.0 1015197
08:00+9nne5667100 0.0 1014387
11:00+11nne566287 0.0 1013667
14:00+13n65582 0.0 1011933
17:00+12nne66581 0.0 1009826
20:00+9ne68764 0.0 1009345